| time (UTC) | temp F | wind direction | speed knots | gust knots | rain 1hr in | rain 24hr in | rain mn in | humidity % | barometer mb |
| 20260507113136 | 57 | 21 | 4.3 | 12.2 | 0.08 | 0.08 | 0.08 | 85 | 1012.8 |
| 20260507111631 | 60 | 130 | 6.1 | 11.3 | 0.00 | 0.00 | 0.00 | 77 | 1012.8 |
| 20260507110117 | 60 | 15 | 3.5 | 9.6 | 0.00 | 0.00 | 0.00 | 73 | 1012.8 |
| 20260507104644 | 61 | 68 | 3.5 | 12.2 | 0.00 | 0.00 | 0.00 | 71 | 1012.9 |
| 20260507103155 | 61 | 23 | 3.5 | 10.4 | 0.00 | 0.00 | 0.00 | 70 | 1012.9 |
| 20260507101507 | 60 | 92 | 1.7 | 8.7 | 0.00 | 0.00 | 0.00 | 74 | 1013.1 |
| 20260507100004 | 59 | 58 | 4.3 | 9.6 | 0.00 | 0.00 | 0.00 | 74 | 1013.3 |
| 20260507094513 | 59 | 100 | 3.5 | 9.6 | 0.00 | 0.00 | 0.00 | 74 | 1013.2 |
| 20260507093035 | 59 | 92 | 1.7 | 6.1 | 0.00 | 0.00 | 0.00 | 75 | 1013.1 |
| 20260507091602 | 58 | 42 | 5.2 | 8.7 | 0.00 | 0.00 | 0.00 | 76 | 1013.1 |
| 20260507090042 | 58 | 37 | 3.5 | 8.7 | 0.00 | 0.00 | 0.00 | 75 | 1013.1 |
| 20260507084602 | 58 | 43 | 1.7 | 7.0 | 0.00 | 0.00 | 0.00 | 79 | 1013.1 |
| 20260507083046 | 57 | 46 | 2.6 | 5.2 | 0.00 | 0.00 | 0.00 | 79 | 1013.0 |
| 20260507081607 | 57 | 59 | 1.7 | 7.0 | 0.00 | 0.00 | 0.00 | 80 | 1013.1 |
| 20260507080147 | 56 | 35 | 3.5 | 8.7 | 0.00 | 0.00 | 0.00 | 83 | 1013.0 |
| 20260507074650 | 57 | 76 | 6.1 | 10.4 | 0.00 | 0.00 | 0.00 | 83 | 1012.9 |
| 20260507073149 | 57 | 23 | 0.9 | 11.3 | 0.00 | 0.00 | 0.00 | 83 | 1012.7 |
| 20260507070146 | 54 | 289 | 2.6 | 9.6 | 0.00 | 0.00 | 0.00 | 87 | 1013.0 |
| 20260507064649 | 54 | 69 | 0.9 | 3.5 | 0.00 | 0.00 | 0.00 | 88 | 1012.9 |
| 20260507063002 | 53 | 79 | 0.0 | 7.0 | 0.00 | 0.00 | 0.00 | 91 | 1012.9 |
| 20260507061504 | 48 | 42 | 0.0 | 1.7 | 0.00 | 0.00 | 0.00 | 90 | 1012.9 |
| 20260507060155 | 48 | 272 | 0.0 | 1.7 | 0.00 | 0.00 | 0.00 | 89 | 1012.7 |
| 20260507054506 | 47 | 293 | 0.0 | 1.7 | 0.00 | 0.00 | 0.00 | 91 | 1012.6 |
| 20260507053047 | 46 | 290 | 0.0 | 1.7 | 0.00 | 0.00 | 0.00 | 89 | 1012.4 |
| 20260507051608 | 45 | 277 | 0.0 | 2.6 | 0.00 | 0.00 | 0.00 | 89 | 1012.2 |
| 20260507050112 | 45 | 276 | 0.0 | 2.6 | 0.00 | 0.00 | 0.00 | 89 | 1012.2 |
| 20260507044618 | 45 | 266 | 1.7 | 3.5 | 0.00 | 0.00 | 0.00 | 88 | 1012.0 |
| 20260507043156 | 45 | 263 | 0.0 | 3.5 | 0.00 | 0.00 | 0.00 | 88 | 1012.0 |
| 20260507041515 | 45 | 274 | 1.7 | 3.5 | 0.00 | 0.00 | 0.00 | 88 | 1012.1 |
| 20260507040023 | 45 | 262 | 1.7 | 3.5 | 0.00 | 0.00 | 0.00 | 88 | 1012.2 |
| 20260507034635 | 45 | 281 | 0.9 | 3.5 | 0.00 | 0.00 | 0.00 | 88 | 1012.2 |
| 20260507033148 | 46 | 273 | 0.9 | 2.6 | 0.00 | 0.00 | 0.00 | 87 | 1012.2 |
| 20260507031507 | 46 | 268 | 1.7 | 2.6 | 0.00 | 0.00 | 0.00 | 87 | 1012.1 |
| 20260507030034 | 46 | 282 | 0.9 | 3.5 | 0.00 | 0.00 | 0.00 | 88 | 1012.1 |
| 20260507024622 | 46 | 264 | 1.7 | 2.6 | 0.00 | 0.00 | 0.00 | 88 | 1011.9 |
| 20260507023145 | 47 | 264 | 0.9 | 2.6 | 0.00 | 0.00 | 0.00 | 87 | 1011.8 |
| 20260507021658 | 47 | 264 | 0.0 | 1.7 | 0.00 | 0.00 | 0.00 | 86 | 1011.7 |
| 20260507020159 | 47 | 264 | 0.0 | 1.7 | 0.00 | 0.00 | 0.00 | 86 | 1011.7 |
| 20260507014525 | 47 | 250 | 0.0 | 2.6 | 0.00 | 0.00 | 0.00 | 86 | 1011.8 |
| 20260507013038 | 47 | 271 | 1.7 | 3.5 | 0.00 | 0.00 | 0.00 | 86 | 1011.8 |
| 20260507011605 | 47 | 279 | 0.9 | 2.6 | 0.00 | 0.00 | 0.00 | 86 | 1012.0 |
| 20260507010047 | 48 | 266 | 0.9 | 3.5 | 0.00 | 0.00 | 0.00 | 86 | 1012.0 |
| 20260507004606 | 48 | 291 | 0.9 | 2.6 | 0.00 | 0.00 | 0.00 | 86 | 1012.1 |
| 20260507003121 | 48 | 268 | 1.7 | 2.6 | 0.00 | 0.00 | 0.00 | 86 | 1012.1 |
| 20260507001647 | 48 | 268 | 1.7 | 2.6 | 0.00 | 0.00 | 0.00 | 86 | 1012.1 |
| 20260507000157 | 48 | 264 | 1.7 | 2.6 | 0.00 | 0.00 | 0.00 | 86 | 1012.3 |
| 20260506234524 | 49 | 264 | 0.0 | 2.6 | 0.00 | 0.00 | 0.00 | 85 | 1012.3 |
| 20260506233102 | 50 | 258 | 1.7 | 2.6 | 0.00 | 0.00 | 0.00 | 85 | 1012.5 |
| 20260506231526 | 50 | 288 | 0.9 | 1.7 | 0.00 | 0.00 | 0.00 | 86 | 1012.6 |
| 20260506230005 | 50 | 254 | 0.0 | 1.7 | 0.00 | 0.00 | 0.00 | 86 | 1012.5 |
| 20260506224505 | 50 | 254 | 0.9 | 3.5 | 0.00 | 0.00 | 0.00 | 86 | 1012.5 |
| 20260506223136 | 49 | 272 | 1.7 | 3.5 | 0.00 | 0.00 | 0.00 | 86 | 1012.5 |
| 20260506221528 | 49 | 265 | 1.7 | 3.5 | 0.00 | 0.00 | 0.00 | 87 | 1012.5 |
| 20260506220004 | 49 | 258 | 1.7 | 2.6 | 0.00 | 0.00 | 0.00 | 87 | 1012.5 |
| 20260506214626 | 50 | 287 | 0.9 | 1.7 | 0.00 | 0.00 | 0.00 | 87 | 1012.6 |
| 20260506213127 | 50 | 287 | 0.0 | 2.6 | 0.00 | 0.00 | 0.00 | 86 | 1012.5 |
| 20260506211515 | 50 | 246 | 0.0 | 2.6 | 0.00 | 0.00 | 0.00 | 86 | 1012.5 |
| 20260506204511 | 51 | 283 | 0.9 | 1.7 | 0.00 | 0.00 | 0.00 | 85 | 1012.4 |
| 20260506203102 | 51 | 277 | 2.6 | 5.2 | 0.00 | 0.00 | 0.00 | 86 | 1012.2 |
| 20260506201558 | 51 | 283 | 1.7 | 3.5 | 0.00 | 0.00 | 0.00 | 85 | 1012.1 |
| 20260506200016 | 52 | 266 | 0.9 | 3.5 | 0.00 | 0.00 | 0.00 | 84 | 1011.8 |
| 20260506194533 | 52 | 276 | 0.9 | 5.2 | 0.00 | 0.01 | 0.00 | 83 | 1011.7 |
| 20260506193034 | 53 | 281 | 0.9 | 3.5 | 0.00 | 0.01 | 0.00 | 82 | 1011.3 |
| 20260506191526 | 54 | 273 | 1.7 | 3.5 | 0.00 | 0.01 | 0.00 | 79 | 1011.1 |
| 20260506190109 | 55 | 258 | 1.7 | 2.6 | 0.00 | 0.01 | 0.00 | 78 | 1011.0 |
| 20260506183137 | 57 | 281 | 0.0 | 2.6 | 0.00 | 0.02 | 0.00 | 73 | 1010.6 |
| 20260506180121 | 60 | 333 | 0.0 | 1.7 | 0.00 | 0.02 | 0.00 | 65 | 1010.7 |
| 20260506174508 | 62 | 118 | 1.7 | 5.2 | 0.00 | 0.05 | 0.00 | 59 | 1010.6 |
| 20260506173002 | 62 | 125 | 2.6 | 4.3 | 0.00 | 0.05 | 0.00 | 57 | 1010.6 |
| 20260506171538 | 62 | 135 | 3.5 | 6.1 | 0.00 | 0.05 | 0.00 | 56 | 1010.5 |
| 20260506170021 | 63 | 64 | 2.6 | 6.1 | 0.00 | 0.05 | 0.00 | 56 | 1010.6 |
| 20260506164535 | 63 | 138 | 0.0 | 2.6 | 0.00 | 0.05 | 0.00 | 58 | 1010.7 |
| 20260506163053 | 62 | 133 | 2.6 | 4.3 | 0.00 | 0.05 | 0.00 | 57 | 1010.6 |
| 20260506161619 | 62 | 141 | 0.0 | 1.7 | 0.00 | 0.05 | 0.00 | 59 | 1010.8 |
| 20260506160108 | 60 | 129 | 0.9 | 5.2 | 0.00 | 0.05 | 0.00 | 63 | 1010.8 |
| 20260506154631 | 60 | 171 | 1.7 | 7.0 | 0.00 | 0.05 | 0.00 | 65 | 1010.9 |
| 20260506153144 | 60 | 156 | 3.5 | 7.0 | 0.00 | 0.05 | 0.00 | 67 | 1011.0 |
| 20260506151649 | 60 | 127 | 5.2 | 8.7 | 0.00 | 0.05 | 0.00 | 67 | 1011.0 |
| 20260506150115 | 60 | 177 | 3.5 | 10.4 | 0.00 | 0.05 | 0.00 | 67 | 1011.1 |
| 20260506144700 | 62 | 179 | 6.1 | 9.6 | 0.00 | 0.09 | 0.00 | 65 | 1011.0 |
| 20260506141509 | 62 | 128 | 2.6 | 7.8 | 0.00 | 0.09 | 0.00 | 60 | 1011.0 |
| 20260506134512 | 62 | 100 | 2.6 | 6.1 | 0.00 | 0.09 | 0.00 | 59 | 1011.1 |
| 20260506133038 | 63 | 129 | 2.6 | 7.0 | 0.00 | 0.09 | 0.00 | 59 | 1011.1 |
| 20260506131655 | 63 | 89 | 0.9 | 5.2 | 0.00 | 0.09 | 0.00 | 56 | 1011.1 |
| 20260506124504 | 61 | 75 | 6.1 | 8.7 | 0.00 | 0.09 | 0.00 | 62 | 1011.4 |
| 20260506123030 | 61 | 98 | 4.3 | 7.0 | 0.00 | 0.09 | 0.00 | 58 | 1011.5 |
| 20260506121547 | 62 | 93 | 3.5 | 9.6 | 0.00 | 0.09 | 0.00 | 60 | 1011.4 |
| 20260506120057 | 61 | 89 | 3.5 | 8.7 | 0.00 | 0.09 | 0.00 | 61 | 1011.4 |
| 20260506114622 | 63 | 137 | 6.1 | 10.4 | 0.00 | 0.17 | 0.00 | 53 | 1011.5 |